Regional Weather Roundup
Issued by NWS

Home | Current Version | Previous Version | Text Only | Print | Product List | Glossary On
Versions: 1 2 3 4 5 6 7 8 9 10 11 12 13 14 15 16 17 18 19 20 21 22 23 24 25 26 27 28 29 30 31 32 33 34 35 36 37 38 39 40 41 42 43 44 45 46 47 48 49
000
ASUS42 KFFC 060703
RWRGA
WEATHER ROUNDUP FOR GEORGIA
NATIONAL WEATHER SERVICE PEACHTREE CITY GA
200 AM EST FRI MAR 06 2015

NOTE: "FAIR" INDICATES FEW OR NO CLOUDS BELOW 12,000 FEET WITH NO
SIGNIFICANT WEATHER AND/OR OBSTRUCTIONS TO VISIBILITY.

* = USE WITH CAUTION. THE STATIONS MARKED WITH AN ASTERISK MAY NOT
REPORT WEATHER SUCH AS PRECIPITATION, FOG, OR THUNDER AND ARE NOT
QUALITY CONTROLLED BY NWS.

THE REMARK "TC" DENOTES TEMPERATURE READING IN DEGREES CELSIUS.

GAZ001>058-060800-
NORTH GEORGIA

CITY           SKY/WX    TMP DP  RH WIND       PRES   REMARKS
ATLANTA        CLOUDY    28  22  78 NW15      30.31R WCI  16
ATHENS         CLOUDY    39  37  92 NE8       30.29R FOG     WCI  33
CHAMBLEE       CLOUDY    27  22  81 NW10      30.32R WCI  17
PEACHTREE CITY CLOUDY    30  22  72 NW15      30.33R WCI  19
ROME           PTCLDY    25  18  74 N10G21    30.40F WCI  15
WEST ATLANTA   CLOUDY    27  20  75 NW9       30.34R WCI  18
GAINESVILLE    CLOUDY    32  24  72 NW8       30.30R WCI  25
CARTERSVILLE   PTCLDY    25  18  74 N10G16    30.39R WCI  15


CITY           SKY/WX    TMP DP  RH WIND       PRES   REMARKS
DALTON*        CLOUDY    25  21  86 N14       30.41F WCI  13
MARIETTA       CLOUDY    26  21  83 NW10      30.32S WCI  16
$$

GAZ059>098-102>109-060800-
CENTRAL GEORGIA

CITY           SKY/WX    TMP DP  RH WIND       PRES   REMARKS
AUGUSTA-BUSH   CLOUDY    43  35  73 NE12      30.30R
AUGUSTA-DANIEL CLOUDY    44  36  73 NE10      30.30R
COLUMBUS       PTCLDY    32  24  72 VRB6      30.34R WCI  26
MACON          CLOUDY    37  29  72 NW9       30.30S WCI  30
ROBINS AFB     CLOUDY    38  30  72 NW12      30.30R WCI  31


CITY           SKY/WX    TMP DP  RH WIND       PRES   REMARKS
LAGRANGE*      PTCLDY    32  26  78 N10       30.35R WCI  24
SYLVANIA*      DRIZZLE   44  44 100 NE12G17   30.28R
MILLEDGEVILLE* CLOUDY    39  36  87 N3        30.30S
$$

GAZ099>101-110>166-060800-
SOUTH GEORGIA

CITY           SKY/WX    TMP DP  RH WIND       PRES   REMARKS
SAVANNAH       CLOUDY    47  43  86 N10G21    30.24R
VALDOSTA       PTCLDY    48  43  82 VRB3      30.23R
ALMA           CLOUDY    46  39  76 N9        30.23S
ST SIMONS      MOCLDY    54  49  83 N9        30.19R
FT STEWART     CLOUDY    51  46  83 NW9       30.20R
ALBANY         MOCLDY    41  32  70 N12       30.31R
HUNTER AFB     CLOUDY    48  46  91 N12       30.21R
MOODY AFB      CLOUDY    47  40  77 N13       30.22R
BRUNSWICK      MOCLDY    54  46  76 NW5       30.20F


CITY           SKY/WX    TMP DP  RH WIND       PRES   REMARKS
BAINBRIDGE*    PTCLDY    43  36  75 N9        30.30S
MOULTRIE*      MOCLDY    43  37  81 N7        30.26S
VIDALIA*       CLOUDY    45  41  87 N10       30.25R
WAYCROSS*      CLEAR     51  45  82 N13       30.23S
DOUGLAS*       PTCLDY    46  41  81 N7        30.26R
$$


USA.gov is the U.S. government's official web portal to all federal, state and local government web resources and services.